#timestamp,LO_Frequency,Hit,StdDev 
1646118015.8,286047001.3,P
1646118035.6,286047002.4,P
1646118055.4,286047000.4,N
1646118075.3,286047000.0,N
1646118095.1,286047002.4,N
1646118115.9,286047004.4,Y
1646118135.7,286047001.2,P
1646118155.5,286046999.2,P
1646118175.4,286046998.8,N
1646118195.2,286046999.1,N
1646118215.1,286047000.8,N
1646118216.0,286047000.8,N
1646118235.8,286047000.0,N
1646118255.6,286047000.7,N
1646118275.5,286046999.4,N
1646118295.3,286046999.5,N
1646118315.1,286046998.7,N
1646118335.9,286046999.2,N
1646118355.7,286046998.5,N
1646118375.6,286047001.0,N
1646118395.4,286046999.5,N
1646118415.2,286046996.6,Y
1646118435.1,286046999.2,P
1646118436.0,286046999.2,N
1646118455.8,286046997.0,P
1646118475.7,286046997.7,N
1646118495.5,286046997.3,N
1646118515.3,286046997.2,N
1646118535.2,286046996.7,Y
1646118555.0,286047001.0,P
1646118555.9,286047001.0,N
1646118575.7,286047002.6,N
1646118595.6,286047000.1,N
1646118615.4,286047000.1,N
1646118635.3,286047000.1,N
1646118655.1,286047000.7,N
1646118675.8,286046998.4,N
1646118695.7,286046996.9,N
1646118715.5,286046998.9,N
1646118735.4,286046999.0,N
1646118755.2,286046998.1,N
1646118775.0,286047001.2,N
1646118775.9,286047001.2,N
1646118795.8,286047001.2,N
1646118815.6,286046999.6,N
1646118835.4,286046998.8,N
1646118855.3,286047001.0,N
1646118875.1,286047001.2,N
1646118895.9,286046998.3,N
1646118915.7,286046999.8,N
1646118935.5,286047000.5,N
1646118955.4,286047001.0,N
1646118975.2,286047000.3,N
1646118995.0,286047002.7,N
1646118995.9,286047002.7,N
1646119015.8,286047002.7,N
1646119035.6,286047002.3,N
1646119055.5,286046999.9,N
1646119075.3,286047000.3,N
1646119095.1,286047000.0,N
1646119115.9,286046998.9,N
1646119135.7,286047001.0,N
1646119155.5,286047000.4,N
1646119175.4,286047000.3,N
1646119195.2,286047002.0,N
1646119215.1,286047000.2,N
1646119216.0,286047000.2,N
1646119235.8,286047001.0,N
1646119255.6,286047000.1,N
1646119275.5,286046999.7,N
1646119295.3,286047002.3,N
1646119315.1,286047000.5,N
1646119335.9,286047001.6,N
1646119355.7,286047002.5,N
1646119375.6,286047002.3,N
1646119395.4,286046999.7,N
1646119415.2,286047002.4,N
1646119435.1,286047002.0,N
1646119436.0,286047002.0,N
1646119455.8,286047001.7,N
1646119475.7,286047004.4,Y
1646119495.5,286047000.0,P
1646119515.3,286047000.7,N
1646119535.2,286047001.8,P
1646119555.9,286046999.9,N
1646119575.7,286047000.7,N
1646119595.6,286046999.9,N
1646119615.4,286047003.8,Y
1646119635.3,286047002.5,P
1646119655.1,286047002.4,N
1646119656.0,286047002.4,N
1646119675.8,286047002.7,Y
1646119695.7,286047000.6,P
1646119715.5,286046998.6,N
1646119735.3,286047000.5,N
1646119755.2,286046998.6,N
1646119775.0,286046997.3,N
1646119775.9,286046997.3,N
1646119795.8,286046997.0,N
1646119815.6,286046996.5,N
1646119835.4,286046997.1,N
1646119855.3,286046997.3,N
1646119875.1,286046997.6,N
1646119895.9,286046995.1,N
1646119915.7,286046997.3,N
1646119935.5,286046995.3,N
1646119955.4,286046995.0,N
1646119975.2,286046995.3,N
1646119995.0,286046997.2,N
1646119995.9,286046997.2,N
1646120015.8,286046997.4,N
1646120035.6,286046995.4,N
1646120055.5,286046998.0,N
1646120075.3,286046995.3,N
1646120095.1,286046994.9,N
1646120115.0,286046997.4,N
1646120115.9,286046997.4,N
1646120135.8,286046996.8,N
1646120155.6,286046997.2,N
1646120175.4,286046997.9,N
1646120195.3,286046995.1,N
1646120215.1,286046997.9,N
1646120235.9,286046997.4,N
1646120255.7,286046997.1,N
1646120275.5,286046998.2,N
1646120295.4,286046998.6,N
1646120315.2,286046997.0,N
1646120335.1,286046997.8,N
1646120336.0,286046997.8,N
1646120355.8,286046995.4,Y
1646120375.6,286046998.6,P
1646120395.5,286046998.3,N
1646120415.3,286047000.5,N
1646120435.2,286047001.0,N
1646120455.9,286046998.4,N
1646120475.7,286047000.5,N
1646120495.6,286047001.0,N
1646120515.4,286047002.3,N
1646120535.3,286047002.3,N
1646120555.1,286047000.8,N
1646120556.0,286047000.8,N
1646120575.8,286047000.3,N
1646120595.7,286047000.2,N
1646120615.5,286047001.1,N
1646120635.3,286047002.3,N
1646120655.2,286047000.3,N
1646120675.0,286046999.9,N
1646120675.9,286046999.9,N
1646120695.8,286047002.8,N
1646120715.6,286046999.8,N
1646120735.4,286046999.7,N
1646120755.3,286046999.8,N
1646120775.1,286047000.5,N
1646120795.9,286046999.7,N
1646120815.7,286047002.1,N
1646120835.5,286047002.0,N
1646120855.4,286046999.7,N
1646120875.2,286047002.0,N
1646120895.1,286047002.7,N
1646120896.0,286047002.7,N
1646120915.8,286046999.9,N
1646120935.6,286046999.8,N
1646120955.5,286047001.2,N
1646120975.3,286046999.9,N
1646120995.1,286046999.7,N
1646121015.9,286047000.0,N
1646121035.7,286047002.8,N
1646121055.6,286047002.8,N
1646121075.4,286046999.7,N
1646121095.2,286047000.2,N
1646121115.1,286047002.8,N
1646121116.0,286047002.8,N
1646121135.8,286047002.6,N
1646121155.7,286047000.1,N
1646121175.5,286047001.1,N
1646121195.3,286047000.7,N
1646121215.2,286046998.5,N
1646121235.0,286046999.4,N
1646121235.9,286046999.4,N
1646121255.8,286046999.7,N
1646121275.6,286047000.6,N
1646121295.4,286047001.0,N
1646121315.3,286046999.0,N
1646121335.1,286047001.0,N
1646121355.8,286047000.2,N
1646121375.7,286047002.7,N
1646121395.5,286047002.0,N
1646121415.4,286046999.7,N
1646121435.2,286047002.7,N
1646121455.0,286047000.6,N
1646121455.9,286047000.6,N
1646121475.8,286047002.3,N
1646121495.6,286047002.8,N
1646121515.4,286047002.5,N
1646121535.3,286047001.6,N
1646121555.1,286047002.6,N
1646121575.9,286047001.3,N
1646121595.7,286047001.6,N
